User: anonymous   Login
Location: Unspecified
(0.0000°N, 0.0000°E)
Time: 14:31:19
(UTC+00:00)
Language:

N. Korean satellite - Orbit

View from above orbital plane
View from above orbital plane
View from above satellite
View from above satellite

Ground track
Ground track

The orbit data is extracted from the following two-line orbital elements,

1 39026U 12072A   15245.93475013 +.00003000 +00000-0 +13540-3 0  9990
2 39026 097.2783 274.8602 0044238 324.3417 035.4866 15.20878581150465
Epoch (UTC): 02 September 2015 22:26:02
Eccentricity: 0.0044238
inclination: 97.2783°
perigee height: 473 km
apogee height: 533 km
right ascension of ascending node: 274.8602°
argument of perigee: 324.3417°
revolutions per day: 15.20878581
mean anomaly at epoch: 35.4866°
orbit number at epoch: 15046

The dashed part of the orbit path shows where the satellite is in the earth's shadow,  

DLR